• In Deutschland
  • Länderverzeichnis
  • Für 7 Tage
  • Wassertemperatur
  • Satellitenkarten
  • Wetterkarte
  • Widgets
  • user-avatar
    Anmelden

    Stündliche Wetter Michigan

    Heute, 15 August, Mittwoch

    Zeit Temperatur Niederschläge Wind Luftdruck Luftfeuchtigkeit
    00:00 +20°C° 0 mm 2 m/S 723 mmHg 94%
    01:00 +20°C° 0 mm 2 m/S 723 mmHg 94%
    02:00 +20°C° 0 mm 2 m/S 723 mmHg 95%
    03:00 +20°C° 0 mm 2 m/S 723 mmHg 96%
    04:00 +20°C° 0 mm 2 m/S 724 mmHg 94%
    05:00 +20°C° 0 mm 2 m/S 724 mmHg 93%
    06:00 +22°C° 0 mm 1 m/S 724 mmHg 91%
    07:00 +24°C° 0 mm 2 m/S 724 mmHg 82%
    08:00 +26°C° 0 mm 2 m/S 724 mmHg 72%
    09:00 +28°C° 0 mm 2 m/S 725 mmHg 62%
    10:00 +29°C° 0 mm 2 m/S 725 mmHg 56%
    11:00 +30°C° 0 mm 2 m/S 725 mmHg 49%
    12:00 +32°C° 0 mm 2 m/S 725 mmHg 42%
    13:00 +31°C° 0 mm 2 m/S 725 mmHg 44%
    14:00 +31°C° 0 mm 2 m/S 724 mmHg 45%
    15:00 +31°C° 0 mm 2 m/S 724 mmHg 46%
    16:00 +29°C° 0 mm 2 m/S 724 mmHg 52%
    17:00 +28°C° 0 mm 2 m/S 724 mmHg 57%
    18:00 +27°C° 0 mm 2 m/S 724 mmHg 63%
    19:00 +25°C° 0 mm 1 m/S 724 mmHg 69%
    20:00 +24°C° 0 mm 1 m/S 724 mmHg 75%
    21:00 +22°C° 0 mm 1 m/S 724 mmHg 81%
    22:00 +22°C° 0 mm 1 m/S 724 mmHg 84%
    23:00 +21°C° 0 mm 1 m/S 724 mmHg 86%

    Morgen, 16 August, Donnerstag

    Zeit Temperatur Niederschläge Wind Luftdruck Luftfeuchtigkeit
    00:00 +21°C° 0 mm 1 m/S 724 mmHg 89%
    01:00 +20°C° 0 mm 1 m/S 723 mmHg 91%
    02:00 +20°C° 0 mm 1 m/S 723 mmHg 92%
    03:00 +20°C° 0 mm 1 m/S 723 mmHg 94%
    04:00 +20°C° 0 mm 1 m/S 724 mmHg 93%
    05:00 +21°C° 0 mm 1 m/S 724 mmHg 92%
    06:00 +20°C° 0 mm 2 m/S 724 mmHg 90%
    07:00 +23°C° 0,1 mm 2 m/S 724 mmHg 84%
    08:00 +25°C° 0,1 mm 2 m/S 724 mmHg 78%
    09:00 +26°C° 0,1 mm 2 m/S 724 mmHg 72%
    10:00 +26°C° 1,7 mm 2 m/S 724 mmHg 75%
    11:00 +26°C° 1,7 mm 2 m/S 724 mmHg 79%
    12:00 +26°C° 1,7 mm 2 m/S 724 mmHg 83%
    13:00 +26°C° 2,4 mm 2 m/S 723 mmHg 85%
    14:00 +25°C° 2,4 mm 2 m/S 723 mmHg 87%
    15:00 +25°C° 2,4 mm 2 m/S 723 mmHg 89%
    16:00 +24°C° 2,2 mm 2 m/S 723 mmHg 91%
    17:00 +24°C° 2,2 mm 2 m/S 723 mmHg 93%
    18:00 +23°C° 2,2 mm 2 m/S 722 mmHg 95%
    19:00 +21°C° 1,4 mm 2 m/S 722 mmHg 95%
    20:00 +21°C° 1,4 mm 2 m/S 722 mmHg 96%
    21:00 +20°C° 1,4 mm 2 m/S 722 mmHg 97%
    22:00 +20°C° 1,3 mm 3 m/S 722 mmHg 98%
    23:00 +20°C° 1,3 mm 3 m/S 722 mmHg 98%

    übermorgen, 17 August, Freitag

    Zeit Temperatur Niederschläge Wind Luftdruck Luftfeuchtigkeit
    00:00 +20°C° 1,3 mm 3 m/S 722 mmHg 98%
    01:00 +20°C° 0,3 mm 3 m/S 722 mmHg 98%
    02:00 +20°C° 0,3 mm 3 m/S 722 mmHg 98%
    03:00 +20°C° 0,3 mm 3 m/S 722 mmHg 98%
    04:00 +20°C° 0,5 mm 4 m/S 722 mmHg 97%
    05:00 +20°C° 0,5 mm 4 m/S 722 mmHg 97%
    06:00 +20°C° 0,5 mm 4 m/S 722 mmHg 97%
    07:00 +21°C° 0,1 mm 4 m/S 723 mmHg 91%
    08:00 +22°C° 0,1 mm 4 m/S 723 mmHg 85%
    09:00 +23°C° 0,1 mm 4 m/S 724 mmHg 79%
    10:00 +25°C° 0 mm 4 m/S 724 mmHg 71%
    11:00 +27°C° 0 mm 4 m/S 724 mmHg 64%
    12:00 +28°C° 0 mm 4 m/S 724 mmHg 56%
    13:00 +28°C° 0,2 mm 4 m/S 724 mmHg 56%
    14:00 +28°C° 0,2 mm 4 m/S 724 mmHg 56%
    15:00 +28°C° 0,2 mm 4 m/S 724 mmHg 57%
    16:00 +27°C° 0 mm 3 m/S 724 mmHg 62%
    17:00 +25°C° 0 mm 2 m/S 724 mmHg 67%
    18:00 +24°C° 0 mm 2 m/S 725 mmHg 72%
    19:00 +23°C° 0 mm 2 m/S 725 mmHg 76%
    20:00 +21°C° 0 mm 2 m/S 725 mmHg 81%
    21:00 +19°C° 0 mm 2 m/S 725 mmHg 85%
    22:00 +19°C° 0 mm 2 m/S 725 mmHg 86%
    23:00 +19°C° 0 mm 1 m/S 725 mmHg 87%

    18 August, Samstag

    Zeit Temperatur Niederschläge Wind Luftdruck Luftfeuchtigkeit
    00:00 +18°C° 0 mm 1 m/S 725 mmHg 88%
    01:00 +18°C° 0 mm 1 m/S 725 mmHg 88%
    02:00 +18°C° 0 mm 1 m/S 725 mmHg 88%
    03:00 +16°C° 0 mm 1 m/S 725 mmHg 89%
    04:00 +18°C° 0 mm 1 m/S 725 mmHg 87%
    05:00 +18°C° 0 mm 1 m/S 726 mmHg 85%
    06:00 +18°C° 0 mm 1 m/S 726 mmHg 84%
    07:00 +21°C° 0 mm 1 m/S 726 mmHg 73%
    08:00 +24°C° 0 mm 1 m/S 727 mmHg 63%
    09:00 +26°C° 0 mm 1 m/S 727 mmHg 52%
    10:00 +27°C° 0 mm 1 m/S 727 mmHg 48%
    11:00 +28°C° 0 mm 1 m/S 727 mmHg 44%
    12:00 +30°C° 0 mm 2 m/S 727 mmHg 40%
    13:00 +29°C° 0 mm 2 m/S 727 mmHg 41%
    14:00 +29°C° 0 mm 2 m/S 726 mmHg 42%
    15:00 +28°C° 0 mm 2 m/S 726 mmHg 44%
    16:00 +27°C° 0 mm 2 m/S 726 mmHg 50%
    17:00 +25°C° 0 mm 2 m/S 726 mmHg 56%
    18:00 +24°C° 0 mm 2 m/S 726 mmHg 62%
    19:00 +21°C° 0 mm 2 m/S 725 mmHg 67%
    20:00 +19°C° 0 mm 2 m/S 725 mmHg 73%
    21:00 +18°C° 0 mm 2 m/S 725 mmHg 78%
    22:00 +17°C° 0 mm 2 m/S 725 mmHg 80%
    23:00 +16°C° 0 mm 2 m/S 725 mmHg 82%

    19 August, Sonntag

    Zeit Temperatur Niederschläge Wind Luftdruck Luftfeuchtigkeit
    00:00 +16°C° 0 mm 2 m/S 725 mmHg 84%
    01:00 +15°C° 0 mm 2 m/S 725 mmHg 82%
    02:00 +15°C° 0 mm 2 m/S 725 mmHg 80%
    03:00 +15°C° 0 mm 2 m/S 725 mmHg 78%
    04:00 +15°C° 0 mm 2 m/S 725 mmHg 78%
    05:00 +15°C° 0 mm 2 m/S 725 mmHg 77%
    06:00 +15°C° 0 mm 2 m/S 725 mmHg 77%
    07:00 +19°C° 0 mm 1 m/S 726 mmHg 70%
    08:00 +22°C° 0 mm 1 m/S 726 mmHg 63%
    09:00 +25°C° 0 mm 1 m/S 727 mmHg 56%
    10:00 +27°C° 0 mm 1 m/S 726 mmHg 50%
    11:00 +29°C° 0 mm 1 m/S 726 mmHg 43%
    12:00 +30°C° 0 mm 1 m/S 726 mmHg 36%
    13:00 +30°C° 0 mm 1 m/S 726 mmHg 36%
    14:00 +30°C° 0 mm 2 m/S 725 mmHg 36%
    15:00 +30°C° 0 mm 2 m/S 725 mmHg 35%
    16:00 +28°C° 0 mm 2 m/S 725 mmHg 46%
    17:00 +26°C° 0 mm 2 m/S 725 mmHg 56%
    18:00 +24°C° 0 mm 2 m/S 725 mmHg 66%
    19:00 +21°C° 0 mm 2 m/S 725 mmHg 71%
    20:00 +20°C° 0 mm 2 m/S 725 mmHg 76%
    21:00 +19°C° 0 mm 1 m/S 725 mmHg 81%
    22:00 +18°C° 0 mm 2 m/S 725 mmHg 83%
    23:00 +17°C° 0 mm 2 m/S 725 mmHg 84%

    20 August, Montag

    Zeit Temperatur Niederschläge Wind Luftdruck Luftfeuchtigkeit
    00:00 +17°C° 0 mm 2 m/S 725 mmHg 85%
    01:00 +17°C° 0 mm 2 m/S 725 mmHg 86%
    02:00 +16°C° 0 mm 2 m/S 725 mmHg 86%
    03:00 +16°C° 0 mm 2 m/S 725 mmHg 87%
    04:00 +16°C° 0 mm 2 m/S 725 mmHg 85%
    05:00 +18°C° 0 mm 1 m/S 725 mmHg 83%
    06:00 +18°C° 0 mm 1 m/S 725 mmHg 82%
    07:00 +19°C° 0 mm 2 m/S 726 mmHg 74%
    08:00 +21°C° 0 mm 2 m/S 726 mmHg 66%
    09:00 +24°C° 0 mm 2 m/S 726 mmHg 59%
    10:00 +26°C° 0 mm 2 m/S 726 mmHg 53%
    11:00 +27°C° 0 mm 2 m/S 726 mmHg 47%
    12:00 +28°C° 0 mm 2 m/S 726 mmHg 41%
    13:00 +28°C° 0 mm 2 m/S 725 mmHg 42%
    14:00 +28°C° 0 mm 2 m/S 725 mmHg 43%
    15:00 +28°C° 0 mm 2 m/S 725 mmHg 44%
    16:00 +26°C° 0 mm 2 m/S 724 mmHg 53%
    17:00 +25°C° 0 mm 2 m/S 724 mmHg 62%
    18:00 +23°C° 0 mm 1 m/S 724 mmHg 70%
    19:00 +22°C° 0 mm 1 m/S 724 mmHg 74%
    20:00 +21°C° 0 mm 1 m/S 724 mmHg 79%
    21:00 +20°C° 0 mm 1 m/S 724 mmHg 83%
    22:00 +20°C° 0 mm 1 m/S 724 mmHg 84%
    23:00 +20°C° 0 mm 1 m/S 723 mmHg 85%
    Mehr zeigen